Epoch 2007 Sept. 17.0 TT = JDT 2454360.5
T 2007 Sept. 10.56700 TT MPCW
q 3.1112228 (2000.0) P Q
n 0.09962082 Peri. 199.89794 +0.98137580 +0.16992475
a 4.6086030 Node 149.87755 -0.14302796 +0.95769915
e 0.3249098 Incl. 10.28403 -0.12823628 +0.23224538
P 9.89
From 41 observations 2007 Aug. 21-2017 Aug. 23, mean residual 0".6.